sat.trackr.live / text

‹ back to catalog

COSMOS 2485 (747)

NORAD 39155 · 2013-019A

PAYLOAD ACTIVE UNKNOWN

§ Identity

Operator
Country
CIS
Launch date
2013-04-26
Launch site
PLMSC
Launch vehicle
Mass (kg)
RCS (m²)
6.42

Purposes: nav

External: N2YO · Heavens-Above · Gunter

§ Orbital elements

Epoch: 2026-09-07T23:15:10.086336Z

Period
675.73 min
Inclination
65.4699°
Eccentricity
0.0022969
Mean motion
2.13102930 rev/d
Perigee alt
19,071.2 km
Apogee alt
19,188.4 km
Semi-major
25,508.0 km
B*
0.0000e+0
RAAN
70.8288°
Arg perigee
226.3838°
Mean anomaly
133.4785°
Rev number
10,404

§ Raw data

COSMOS 2485 (747)1 39155U 13019A   26250.96886674  .00000039  00000+0  00000+0 0  99962 39155  65.4699  70.8288 0022969 226.3838 133.4785  2.13102930104048

JSON: /api/v1/satellites/39155 · /tle

For live sub-satellite position, see the globe view (requires WebGL).

§ Visibility from observer

Set your observer location to see the next 7 days of passes ≥ 10°. The values pass through the URL so the page stays shareable.

No JS? Fill the form by hand. The geolocation button needs JavaScript.